Regional Weather Roundup
Issued by NWS

Home | Current Version | Previous Version | Graphics & Text | Print | Product List | Glossary Off
Versions: 1 2 3 4 5 6 7 8 9 10 11 12 13 14 15 16 17 18 19 20 21 22 23 24 25 26 27 28 29 30 31 32 33 34 35 36 37 38 39 40 41 42 43 44 45 46 47 48 49 50

000
ASUS43 KTOP 201059
RWRKS

WEATHER ROUNDUP FOR KANSAS
NATIONAL WEATHER SERVICE GOODLAND KS
600 AM CDT FRI APR 20 2018

NOTE:  "FAIR" INDICATES FEW OR NO CLOUDS BELOW 12,000 FEET WITH NO
SIGNIFICANT WEATHER AND/OR OBSTRUCTIONS TO VISIBILITY.

KSZ001>006-013>018-027>032-041>047-201200-
NORTHWEST KANSAS

CITY           SKY/WX    TMP DP  RH WIND       PRES   REMARKS
GOODLAND       CLOUDY    40  28  62 SE23G32   30.12F WCI  30
HAYS           CLOUDY    43  28  55 SE10      30.28F
HILL CITY      CLOUDY    44  28  53 SE14      30.25F
RUSSELL        CLOUDY    44  31  60 SE13      30.29S
$$

KSZ061>065-074>080-084>089-201200-
SOUTHWEST KANSAS

CITY           SKY/WX    TMP DP  RH WIND       PRES   REMARKS
DODGE CITY     CLOUDY    42  27  55 SE17G29   30.23F
GARDEN CITY    CLOUDY    43  28  55 SE22G30   30.18F
GREAT BEND     CLOUDY    42  29  59 SE10      30.30F
LIBERAL        PTCLDY    44  30  57 SE15      30.18F
$$

KSZ066>073-081>083-090>101-201200-
SOUTHEAST KANSAS

CITY           SKY/WX    TMP DP  RH WIND       PRES   REMARKS
CHANUTE        CLOUDY    40  30  67 E8        30.39R
COFFEYVILLE    CLEAR     35  31  85 NE6       30.38R
HUTCHINSON     CLOUDY    41  31  67 SE6       30.33F
MEDICINE LODGE   N/A     42  30  62 E7        30.30F
PARSONS        CLEAR     37  31  78 CALM      30.40R
WICHITA INTL   CLOUDY    44  32  62 E9        30.34R
WICHITA JABRA  CLOUDY    38  32  79 CALM      30.35R
WICHITA MCCONL CLOUDY    42  30  62 SE7       30.34S
WINFIELD       PTCLDY    42  33  70 E8        30.34F
$$

KSZ007>012-019>026-033>040-048>060-102>105-201200-
NORTHEAST KANSAS

CITY           SKY/WX    TMP DP  RH WIND       PRES   REMARKS
CONCORDIA      MOCLDY    37  29  72 SE7       30.34S
EMPORIA        CLOUDY    35  29  78 E6        30.37S
LAWRENCE       CLOUDY    31  28  89 E6        30.40S
MANHATTAN      CLOUDY    34  27  75 NE3       30.38S
OLATHE IND     CLOUDY    40  30  67 E6        30.42R
OLATHE EXE     CLOUDY    40  29  64 E7        30.41S
SALINA         CLOUDY    40  31  70 SE7       30.35S
TOPEKA BILLARD CLOUDY    34  29  82 CALM      30.41R
TOPEKA FORBES  CLOUDY    36  30  79 SE5       30.40R
$$




USA.gov is the U.S. government's official web portal to all federal, state and local government web resources and services.